{"data":{"norad_id":53283,"intl_designator":"2022-086AT","name":"STARLINK-4175","alt_names":[],"object_type":"PAYLOAD","status":"ACTIVE","operator":null,"country":"US","launch_date":"2022-07-24","launch_site_code":"AFETR","launch_vehicle":null,"mission":null,"orbit_class":"UNKNOWN","rcs_meters":null,"size_class":null,"mass_kg":null,"dimensions":null,"purposes":["comms"],"wikipedia_slug":null,"has_3d_model":false,"image_url":null,"decayed_at":null,"tle_current":{"epoch":"2026-05-25T04:15:23.033088Z","epoch_age_seconds":55612,"freshness":"FRESH","line1":"1 53283U 22086AT  26145.17734992 -.00000342  00000+0 -34208-5 0  9991","line2":"2 53283  53.2116 200.7554 0001384  78.8369 281.2778 15.08834880212747","mean_motion":15.0883488,"eccentricity":0.0001384,"inclination_deg":53.2116,"raan_deg":200.7554,"arg_perigee_deg":78.8369,"mean_anomaly_deg":281.2778,"bstar":-3.4208e-6,"rev_number":21274,"period_min":95.437878530486,"perigee_km":538.8016019883,"apogee_km":540.71647561184,"semimajor_km":6917.8960388001,"source":"CELESTRAK","updated_at":"2026-05-25T13:38:17.389404Z"}}}